TimeCDT,TemperatureF,Dew PointF,Humidity,Sea Level PressureIn,VisibilityMPH,Wind Direction,Wind SpeedMPH,Gust SpeedMPH,PrecipitationIn,Events,Conditions,WindDirDegrees,DateUTC
12:55 AM,31.5,23.9,74,30.11,10.0,WSW,8.1,-,N/A,,Clear,240,2012-10-07 05:55:00
1:55 AM,32.2,23.5,70,30.08,10.0,WSW,9.2,-,N/A,,Clear,250,2012-10-07 06:55:00
2:55 AM,31.6,22.8,70,30.06,10.0,WSW,9.2,-,N/A,,Clear,240,2012-10-07 07:55:00
3:55 AM,34.3,21.4,59,30.03,10.0,WSW,10.4,-,N/A,,Clear,250,2012-10-07 08:55:00
4:55 AM,34.9,22.5,61,30.01,10.0,WSW,10.4,-,N/A,,Clear,250,2012-10-07 09:55:00
5:55 AM,35.8,22.6,59,29.99,10.0,WSW,11.5,-,N/A,,Overcast,250,2012-10-07 10:55:00
6:55 AM,36.5,23.4,59,29.96,10.0,SW,9.2,-,N/A,,Overcast,230,2012-10-07 11:55:00
7:55 AM,36.5,24.3,61,29.95,10.0,SW,10.4,-,N/A,,Overcast,230,2012-10-07 12:55:00
8:55 AM,37.8,25.2,60,29.94,10.0,SW,12.7,-,N/A,,Overcast,230,2012-10-07 13:55:00
9:55 AM,41.2,26.1,55,29.93,10.0,WSW,11.5,-,N/A,,Overcast,240,2012-10-07 14:55:00
10:55 AM,45.1,26.8,49,29.92,10.0,SW,15.0,-,N/A,,Overcast,230,2012-10-07 15:55:00
11:55 AM,49.6,27.9,43,29.91,10.0,WSW,11.5,-,N/A,,Overcast,240,2012-10-07 16:55:00
12:55 PM,54.1,27.3,36,29.89,10.0,SW,13.8,-,N/A,,Partly Cloudy,230,2012-10-07 17:55:00
1:55 PM,56.3,26.1,31,29.86,10.0,SW,13.8,-,N/A,,Overcast,220,2012-10-07 18:55:00
2:55 PM,55.6,26.6,33,29.84,10.0,WSW,13.8,19.6,N/A,,Mostly Cloudy,240,2012-10-07 19:55:00
3:55 PM,56.5,25.5,30,29.83,10.0,West,12.7,-,N/A,,Overcast,280,2012-10-07 20:55:00
4:55 PM,56.7,25.7,30,29.81,10.0,West,11.5,19.6,N/A,,Partly Cloudy,270,2012-10-07 21:55:00
5:55 PM,54.3,29.5,39,29.81,10.0,WNW,15.0,-,N/A,,Partly Cloudy,290,2012-10-07 22:55:00
6:55 PM,47.8,30.6,51,29.81,10.0,West,4.6,-,N/A,,Mostly Cloudy,260,2012-10-07 23:55:00
7:55 PM,44.8,34.0,66,29.81,10.0,WSW,4.6,-,N/A,,Overcast,250,2012-10-08 00:55:00
8:55 PM,44.6,32.7,63,29.80,10.0,West,5.8,-,N/A,,Mostly Cloudy,280,2012-10-08 01:55:00
9:55 PM,38.3,30.7,74,29.79,10.0,WNW,5.8,-,N/A,,Clear,300,2012-10-08 02:55:00
10:55 PM,37.4,31.6,80,29.78,10.0,Calm,Calm,-,N/A,,Mostly Cloudy,0,2012-10-08 03:55:00
11:55 PM,34.7,31.1,87,29.76,10.0,WSW,3.5,-,N/A,,Partly Cloudy,240,2012-10-08 04:55:00